Weather History for Fort Lauderdale, FL

Change the Weather History Date:

Saturday, December 1, 2012

  Actual Average Record
Temperature  
Mean Temperature 75 °F -  
Max Temperature 79 °F 80 °F 89 °F (1978)
Min Temperature 71 °F 63 °F 38 °F (1956)
Cooling Degree Days 10    
Growing Degree Days 25 (Base 50)    
Moisture  
Dew Point 61 °F    
Average Humidity 62    
Maximum Humidity 71    
Minimum Humidity 52    
Precipitation  
Precipitation 0.00 in - - ()
Sea Level Pressure  
Sea Level Pressure 30.16 in    
Wind  
Wind Speed 12 mph (ENE)    
Max Wind Speed 17 mph    
Max Gust Speed 23 mph    
Visibility 10 miles    
Events      
Averages and records for this station are not official NWS values.
T = Trace of Precipitation, MM = Missing Value Source: NWS Daily Summary

Daily Weather History Graph

Daily Weather History Graph

Search for Another Location

Airport:

Trip Planner

Search our weather history database for the weather conditions in past years. The results will help you decide how hot, cold, wet, or windy it might be!

Date:

Astronomy

Dec. 01, 2012 Rise Set
Actual Time 6:51 AM EST 5:28 PM EST
Civil Twilight 6:26 AM EST 5:53 PM EST
Nautical Twilight 5:57 AM EST 6:21 PM EST
Astronomical Twilight 5:29 AM EST 6:49 PM EST
Moon 8:12 PM EST (12/1) 9:06 AM EST (12/1)
Length of Visible Light 11h 26m
Length of Day
10h 36m
Waning Gibbous, 92% of the Moon is Illuminated
Dec 1
Waning Gibbous
Dec 6
Last Quarter
Dec 13
New
Dec 20
First Quarter
Dec 28
Full

Hourly Weather History & Observations

Time (EST) Temp. Dew Point Humidity Pressure Visibility Wind Dir Wind Speed Gust Speed Precip Events Conditions
12:53 AM 73.0 °F 62.1 °F 68% 30.15 in 10.0 mi ENE 11.5 mph - N/A   Mostly Cloudy
1:53 AM 72.0 °F 62.1 °F 71% 30.14 in 10.0 mi ENE 10.4 mph - N/A   Partly Cloudy
2:53 AM 71.6 °F 60.8 °F 69% 30.12 in 10.0 mi ENE 10.4 mph - N/A   Partly Cloudy
3:53 AM 73.0 °F 61.0 °F 66% 30.13 in 10.0 mi ENE 11.5 mph 17.3 mph N/A   Mostly Cloudy
4:53 AM 73.0 °F 61.0 °F 66% 30.13 in 10.0 mi ENE 8.1 mph - N/A   Scattered Clouds
5:53 AM 73.0 °F 61.0 °F 66% 30.14 in 10.0 mi NE 6.9 mph - N/A   Partly Cloudy
6:53 AM 73.0 °F 62.1 °F 68% 30.15 in 10.0 mi ENE 9.2 mph - N/A   Partly Cloudy
7:53 AM 73.9 °F 61.0 °F 64% 30.17 in 10.0 mi ENE 10.4 mph - N/A   Scattered Clouds
8:53 AM 77.0 °F 62.1 °F 60% 30.18 in 10.0 mi ENE 13.8 mph 20.7 mph N/A   Scattered Clouds
9:53 AM 77.0 °F 61.0 °F 58% 30.20 in 10.0 mi East 17.3 mph - N/A   Clear
10:53 AM 78.1 °F 60.1 °F 54% 30.20 in 10.0 mi ENE 17.3 mph - N/A   Scattered Clouds
11:53 AM 79.0 °F 60.1 °F 52% 30.19 in 10.0 mi ENE 15.0 mph - N/A   Scattered Clouds
12:53 PM 79.0 °F 60.1 °F 52% 30.18 in 10.0 mi ENE 15.0 mph 21.9 mph N/A   Scattered Clouds
1:53 PM 79.0 °F 60.1 °F 52% 30.16 in 10.0 mi ENE 15.0 mph 23.0 mph N/A   Scattered Clouds
2:18 PM 78.8 °F 60.8 °F 54% 30.14 in 10.0 mi ENE 15.0 mph 19.6 mph N/A   Partly Cloudy
2:53 PM 77.0 °F 60.8 °F 57% 30.14 in 10.0 mi NE 13.8 mph 20.7 mph N/A   Scattered Clouds
3:53 PM 75.9 °F 60.1 °F 58% 30.15 in 10.0 mi ENE 11.5 mph - N/A   Scattered Clouds
4:53 PM 75.9 °F 60.1 °F 58% 30.15 in 10.0 mi ENE 15.0 mph 19.6 mph N/A   Scattered Clouds
5:53 PM 73.9 °F 61.0 °F 64% 30.15 in 10.0 mi ENE 8.1 mph 18.4 mph N/A   Scattered Clouds
6:53 PM 73.9 °F 61.0 °F 64% 30.16 in 10.0 mi NE 12.7 mph - N/A   Partly Cloudy
7:53 PM 73.9 °F 61.0 °F 64% 30.17 in 10.0 mi ENE 10.4 mph - N/A   Partly Cloudy
8:53 PM 73.9 °F 62.1 °F 66% 30.18 in 10.0 mi ENE 11.5 mph 17.3 mph N/A   Clear
9:53 PM 73.9 °F 62.1 °F 66% 30.18 in 10.0 mi ENE 9.2 mph - N/A   Scattered Clouds
10:53 PM 73.9 °F 62.1 °F 66% 30.18 in 10.0 mi ENE 13.8 mph - N/A   Scattered Clouds
11:53 PM 73.9 °F 62.1 °F 66% 30.18 in 10.0 mi ENE 13.8 mph 20.7 mph N/A   Partly Cloudy